Regional Weather Roundup
Issued by NWS Cleveland, OH

Home | Current Version | Previous Version | Graphics & Text | Print | Product List | Glossary On
Versions: 1 2 3 4 5 6 7 8 9 10 11 12 13 14 15 16 17 18 19 20 21 22 23 24 25 26 27 28 29 30 31 32 33 34 35 36 37 38 39 40 41 42 43 44 45 46 47 48 49 50
000
ASUS41 KCLE 260502
RWRCLE
OHIO REGIONAL WEATHER ROUNDUP
NATIONAL WEATHER SERVICE CLEVELAND, OH
100 AM EDT SUN MAR 26 2017

NOTE: "FAIR" INDICATES FEW OR NO CLOUDS BELOW 12,000 FEET WITH NO
SIGNIFICANT WEATHER AND/OR OBSTRUCTIONS TO VISIBILITY.

OHZ001>008-015>018-024>027-034-035-043-044-260600-
   NORTHWEST OHIO

CITY           SKY/WX    TMP DP  RH WIND       PRES   REMARKS
DEFIANCE       CLOUDY    39  36  89 NE12      30.06F
FINDLAY        CLOUDY    43  36  76 NE10      30.04F
TOLEDO EXPRESS CLOUDY    37  36  96 E18G24    30.09F
TOLEDO EXEC    CLOUDY    39  37  92 NE14G23   30.11F
LIMA           CLOUDY    48  45  89 E8        30.03F
$$

OHZ009>014-019>023-028>033-038-089-260600-
   NORTHEAST OHIO

CITY           SKY/WX    TMP DP  RH WIND       PRES   REMARKS
CLE-HOPKINS    MOCLDY    42  36  79 NE5       30.13F
CLE-LAKEFRONT  PTCLDY    40  37  89 NE10      30.11F
CUY CO. ARPT   NOT AVBL
LORAIN-ELYRIA  CLOUDY    40  35  83 E6        30.10F
ASHTABULA      PTCLDY    39  37  92 E6        30.16F
AKRON-CANTON   CLOUDY    56  48  74 E8        30.10F
WOOSTER        PTCLDY    55  49  80 E6        30.09F
MANSFIELD      CLOUDY    58  51  78 E8        30.08F
YOUNGSTOWN     PTCLDY    52  46  80 E5        30.13F
$$

OHZ042-051>053-060>062-070>072-077>081-260600-
  SOUTHWEST OHIO

CITY           SKY/WX    TMP DP  RH WIND       PRES   REMARKS
CINC-COVINGTON LGT RAIN  62  55  77 CALM      30.01S
CINC-LUNKEN    LGT RAIN  62  52  69 SW5       30.02R
HAMILTON       CLOUDY    67  51  56 SW3       30.02R
DAYTON         CLOUDY    61  48  62 SE9       30.01F
WRIGHT-PAT AFB CLOUDY    65  48  54 SE9       30.00F
DAYTON GENERAL CLOUDY    65  48  54 SE10      30.00S
WILMINGTON     CLOUDY    59  49  69 SE7       30.01F
$$

OHZ036-037-039>041-045>050-054>059-063>069-073>076-082>088-260600-
  CENTRAL AND SOUTHEAST OHIO

CITY           SKY/WX    TMP DP  RH WIND       PRES   REMARKS
COLUMBUS       MOCLDY    62  50  64 E7        30.03F
OSU AIRPORT    CLOUDY    63  50  62 SE7       30.03F
BOLTON FIELD   MOCLDY    58  50  72 CALM      30.04S
RICKENBACK AFB MOCLDY    58  49  72 E5        30.03S
NEWARK         CLOUDY    53  48  83 CALM      30.04F
MARION         CLOUDY    57  49  74 E6        30.05F
LANCASTER      MOCLDY    54  49  83 CALM      30.04F
ZANESVILLE     CLOUDY    61  49  64 CALM      30.05F
NEW PHILLY     NOT AVBL
$$




USA.gov is the U.S. government's official web portal to all federal, state and local government web resources and services.